Location: Taukkyan
(23.1052°N, 94.0030°E)
Time: 10:58:33
(UTC+00:00)

CZ-4C R/B - Pass Details

Date: 06 July 2020
Orbit: 632 x 1370 km, 63.4° (Epoch: 15 August)

Event Time Altitude Azimuth Distance (km) Brightness Sun altitude
Rises 18:49:47 0° 343° (NNW) 4,055 6.3 -42.0°
Reaches altitude 10° 18:52:36 10° 350° (N) 3,182 5.7 -41.8°
Maximum altitude 19:00:01 43° 60° (ENE) 1,788 4.0 -41.2°
Enters shadow 19:00:34 42° 70° (ENE) 1,806 3.9 -41.1°
